Theta_e
326 325 325 325 324 322 321 319 318 316 313 313 314 311 312 313 309 307 306 306 306 306 306 306 306 306 306 306 306 306 306 306 306 306 306 306 306 306 306 306 306 306 306 306 307 307 307 307 307 308 308 309 309 309 310 310 311 311 312 312 312 312 311 312 312 311 310 310 309 307 306 304 302 302 302 301 301 301 300 300 300 300 300 300 301
326 325 325 325 323 322 320 319 318 316 314 314 313 310 312 316 313 309 306 306 307 307 307 307 307 306 307 306 306 306 306 306 306 306 307 307 308 308 308 308 307 307 307 306 306 307 307 307 307 307 307 307 307 308 308 309 309 310 310 311 311 312 311 311 311 311 311 311 310 309 307 305 304 303 303 302 301 301 301 301 300 300 300 299 299
325 325 324 324 322 321 319 319 318 316 315 315 313 310 312 316 315 312 308 307 307 307 307 307 307 307 307 307 307 307 307 307 308 308 308 309 310 311 312 312 312 311 310 309 309 308 308 309 310 310 309 308 308 307 308 308 309 309 309 309 310 311 311 311 311 311 312 311 311 310 309 309 308 306 305 304 302 301 301 301 301 301 301 300 300
324 324 324 323 322 321 320 319 318 317 316 315 313 312 313 315 316 316 312 308 307 308 308 307 308 308 308 309 309 308 308 308 309 310 310 311 312 313 313 314 315 315 314 314 313 313 312 312 312 313 313 312 311 309 308 308 309 310 310 309 310 310 310 311 311 311 310 311 311 310 310 310 310 309 308 307 305 304 302 302 302 302 302 302 302
323 323 323 323 322 321 320 320 319 318 317 316 314 314 315 315 316 317 316 312 309 309 310 309 309 309 310 310 310 309 309 310 312 313 314 314 314 314 314 314 314 315 316 316 316 316 315 315 315 315 315 315 314 312 311 310 310 311 312 312 311 310 310 311 311 310 309 309 309 310 310 310 310 310 310 308 307 306 305 305 304 304 304 304 303
323 323 323 323 322 321 320 320 321 320 317 316 315 315 315 316 316 317 318 316 313 312 312 312 311 311 311 311 311 311 311 312 314 315 316 316 315 315 315 315 315 315 316 316 316 316 316 316 316 316 316 316 315 315 314 313 311 311 313 313 312 312 311 311 311 310 309 309 310 310 310 310 310 310 310 309 308 307 307 307 307 306 306 305 305
323 323 323 323 322 322 321 321 322 321 319 316 315 315 315 316 316 316 317 317 317 315 315 314 314 313 312 312 312 312 313 314 315 315 316 316 316 315 316 316 316 316 316 315 315 316 317 316 316 316 316 316 316 315 315 314 313 312 312 312 312 312 312 312 311 311 311 311 311 310 310 310 309 309 309 309 308 308 308 308 308 307 307 306 306
322 322 323 322 322 322 321 321 322 322 320 319 317 316 315 316 316 316 316 318 318 317 316 316 316 315 314 313 313 313 314 315 315 316 316 316 316 316 316 316 316 317 316 315 315 315 315 315 315 315 315 316 316 316 315 314 313 313 313 312 311 311 312 312 311 311 311 311 311 310 310 309 309 308 308 308 308 308 307 308 307 307 308 307 306
320 321 321 321 322 322 322 322 322 321 321 320 318 317 316 316 316 316 316 317 317 318 317 317 317 316 314 314 314 314 315 315 315 315 316 316 316 317 317 317 317 317 317 317 316 315 315 315 315 315 316 316 316 316 316 315 313 312 312 312 312 311 311 311 311 311 311 311 310 310 309 309 308 308 307 307 307 307 307 307 306 306 307 306 306
319 320 320 320 320 321 322 322 322 322 321 320 319 317 316 316 316 316 317 317 317 318 318 317 317 316 315 314 315 314 314 314 313 313 314 316 316 317 317 317 317 317 316 316 315 315 315 315 315 316 316 316 316 316 316 315 314 313 311 311 311 311 309 309 309 310 310 309 309 309 308 308 308 308 307 306 306 306 306 306 305 305 305 305 304
316 318 319 319 319 320 321 321 321 321 321 320 319 318 317 316 315 315 317 317 317 317 316 315 316 316 315 315 315 314 314 314 312 312 313 315 316 317 317 316 316 315 315 315 315 314 315 315 315 315 316 316 316 316 316 316 315 314 312 309 309 309 308 307 308 309 309 309 309 309 308 307 308 307 306 306 306 305 305 305 305 304 304 304 303
312 314 316 317 318 318 319 320 320 320 320 319 319 319 318 317 316 316 316 316 316 315 314 314 315 316 317 316 314 314 314 313 312 312 314 315 316 316 315 315 314 313 313 312 311 310 309 310 311 312 314 316 317 317 317 317 316 315 313 309 308 308 307 307 307 308 309 309 308 308 307 307 307 306 306 305 305 305 305 304 304 303 303 302 302
310 311 312 314 316 317 317 318 319 319 319 319 319 319 319 318 318 317 316 315 315 315 315 315 316 317 316 314 313 314 314 313 312 314 315 315 316 316 314 312 310 308 306 305 304 303 303 303 304 305 307 310 313 316 318 318 317 316 313 308 307 307 307 306 307 308 308 308 307 306 306 305 305 305 305 305 304 304 304 303 303 302 302 301 301
309 311 312 312 314 315 316 317 318 318 318 319 319 319 319 318 318 316 315 315 316 316 316 317 317 317 315 313 313 314 314 312 313 315 316 315 314 312 310 307 305 303 303 302 302 302 302 302 303 304 305 307 310 314 317 317 317 315 312 308 307 307 306 306 307 307 307 307 306 305 304 304 304 304 304 304 304 303 303 302 302 301 301 300 300
307 309 310 311 312 314 315 316 316 317 317 318 319 319 318 318 317 316 316 316 317 317 317 317 316 315 314 313 313 313 313 314 315 315 315 313 310 307 306 305 304 303 303 303 303 302 302 302 303 304 306 308 310 313 316 316 316 314 311 308 307 306 306 306 306 307 307 306 305 304 303 303 303 304 304 303 303 302 302 301 301 300 299 298 298
306 307 308 309 310 311 313 314 315 315 316 318 318 319 318 317 316 317 317 317 317 317 317 316 316 315 315 314 314 314 315 315 316 315 313 310 307 306 305 304 304 303 303 303 303 302 302 302 302 303 304 306 309 311 313 313 313 311 309 307 306 306 305 306 306 307 307 305 304 303 303 303 303 303 303 302 301 301 300 299 298 297 296 296 296
306 306 307 308 309 310 311 313 314 315 315 316 318 318 318 317 317 317 317 317 317 317 316 316 316 316 316 315 315 315 315 315 315 314 310 307 306 306 305 304 304 304 303 303 303 302 302 302 301 302 302 304 306 308 310 310 309 307 306 305 305 305 306 306 306 306 305 303 303 303 302 302 302 302 302 301 300 299 298 297 296 295 295 295 294
305 305 306 307 308 309 310 311 312 313 314 315 316 316 316 316 316 317 316 315 315 315 316 316 316 316 316 316 315 315 315 315 313 310 308 306 306 306 307 306 305 305 304 303 303 302 302 302 301 301 302 302 304 307 308 308 306 305 305 305 305 306 306 305 304 303 303 302 302 302 302 302 302 301 301 299 298 298 297 296 295 295 294 294 294
305 305 305 306 307 308 309 309 309 310 311 313 314 315 315 315 316 316 316 315 314 314 315 315 315 315 314 314 315 314 313 311 308 307 307 308 307 307 307 306 305 305 304 303 303 302 302 301 301 302 302 303 304 306 308 307 307 306 306 305 305 305 304 303 303 302 302 302 301 301 301 301 301 300 298 298 297 296 296 295 294 294 293 293 293
305 305 304 305 305 306 307 308 308 308 308 309 312 314 315 315 316 316 316 315 314 314 314 314 314 314 313 313 312 311 309 308 308 309 308 308 306 306 306 305 305 304 303 303 302 302 302 302 302 302 303 304 305 305 306 306 306 305 305 304 304 304 303 303 302 302 301 300 300 300 300 300 299 298 297 296 296 295 294 294 294 293 293 293 293
303 305 305 304 305 305 305 306 307 307 307 307 308 309 311 312 313 314 314 315 314 314 314 314 314 314 313 311 309 308 307 308 308 307 305 304 303 303 304 304 304 303 303 302 302 302 302 303 303 304 304 304 305 305 305 305 305 305 304 304 304 303 303 303 302 302 301 301 300 300 299 298 297 296 295 295 294 294 294 294 294 294 294 294 293
299 302 304 304 305 305 305 305 305 306 306 307 307 307 307 308 309 310 312 313 313 313 312 313 313 313 311 309 307 306 306 305 304 303 302 302 302 303 304 304 303 303 303 302 302 302 302 303 304 304 304 304 304 304 304 303 304 303 303 303 303 303 303 303 302 302 301 300 298 297 296 296 295 295 295 295 295 295 295 295 295 295 295 294 294
297 298 300 302 304 304 305 304 304 305 305 305 307 307 307 307 306 307 308 309 309 309 309 309 310 310 309 307 305 303 303 302 302 302 302 302 302 303 303 303 303 303 303 303 303 303 303 303 304 304 304 304 304 303 303 303 303 303 302 302 302 301 301 300 299 298 297 296 296 295 295 295 295 295 295 295 295 295 295 295 295 295 294 294 293
296 296 297 299 301 303 304 304 304 304 304 304 305 307 307 307 307 306 305 305 305 306 307 308 308 307 306 304 303 302 303 303 303 302 302 302 302 303 303 303 303 303 303 303 303 303 303 303 303 303 303 303 303 303 303 302 302 301 300 299 298 298 297 297 296 296 295 295 295 294 295 295 295 295 295 295 295 294 294 294 294 294 294 293 293
296 296 296 297 298 300 302 302 303 303 304 304 304 305 306 306 306 306 306 305 304 304 305 306 306 304 303 303 303 304 304 303 303 302 302 303 303 303 303 303 303 304 303 303 303 303 303 303 303 303 302 302 301 300 299 299 298 297 297 296 296 296 296 295 295 295 294 294 295 295 295 295 294 294 294 294 294 294 294 293 293 293 293 292 292
296 295 296 296 296 297 299 300 301 302 302 303 304 304 304 305 305 306 306 306 306 305 304 304 304 303 304 304 305 304 304 303 303 302 302 302 303 303 303 304 304 304 304 304 303 303 303 302 302 302 301 299 298 297 296 296 296 296 296 296 296 295 295 294 294 294 294 294 294 294 294 294 294 294 294 294 294 293 293 292 292 292 292 292 292
295 295 295 296 296 296 297 298 299 300 300 301 302 303 304 304 304 304 305 306 307 306 305 305 305 305 305 305 305 305 304 304 303 303 302 302 302 302 303 304 304 304 303 303 303 302 302 302 301 300 298 297 296 296 296 296 296 296 296 296 295 294 294 294 294 294 294 294 294 294 294 294 294 294 293 293 293 292 292 292 292 292 292 291 291
295 295 295 295 295 296 296 296 297 298 299 300 301 302 303 303 303 303 304 305 306 306 306 306 306 306 306 305 305 305 305 304 304 303 303 302 302 303 304 304 304 303 303 302 302 302 302 301 299 297 296 296 296 296 296 296 296 296 295 294 294 294 294 294 294 293 293 293 293 293 293 293 293 292 292 292 292 292 292 291 291 291 291 291 290
294 294 295 295 295 295 296 296 296 297 298 299 300 301 301 301 301 302 303 304 304 304 305 305 305 305 305 305 305 305 305 304 304 303 303 303 303 304 304 303 303 302 301 301 302 302 300 298 297 296 295 296 296 296 296 296 296 295 294 294 294 294 293 293 293 293 293 293 293 293 292 292 291 291 291 291 291 291 291 291 291 291 291 290 290
294 294 294 294 294 295 295 295 296 296 297 298 299 300 301 301 301 301 301 302 303 303 304 304 303 303 303 304 305 304 304 304 303 303 303 303 303 303 302 301 301 301 301 302 301 300 297 296 296 295 295 295 296 296 296 295 294 294 294 294 294 293 293 292 292 292 292 292 292 292 291 291 291 291 291 290 291 291 291 291 291 291 290 290 290
292 293 293 293 294 294 295 295 296 296 297 297 298 299 300 300 301 301 301 301 301 302 302 302 302 302 303 303 303 303 303 303 303 303 303 303 302 301 301 301 302 302 302 302 300 298 296 296 295 295 295 296 296 295 295 294 293 294 294 293 293 292 292 291 291 292 292 292 292 291 291 290 290 290 290 291 291 291 291 291 290 290 290 290 290
292 292 292 292 293 293 294 295 296 296 297 297 297 298 299 300 300 301 301 301 301 301 301 302 303 302 302 302 302 302 302 302 303 303 302 301 301 301 301 302 303 302 302 300 298 297 296 296 295 296 296 296 295 294 294 293 294 294 293 293 292 291 291 291 291 292 292 292 291 291 290 290 290 290 290 291 291 291 291 291 290 290 290 290 290
294 294 293 293 293 293 293 293 295 296 297 297 297 298 298 299 300 300 300 301 301 301 301 302 302 302 302 302 302 302 302 302 301 301 301 301 300 301 302 303 302 301 299 298 297 296 296 296 296 296 296 295 294 293 293 294 294 294 293 292 291 290 290 290 291 292 292 291 291 291 290 290 290 290 290 291 291 290 290 290 290 290 290 290 290
295 295 295 294 293 293 293 293 294 295 296 297 297 298 298 298 299 299 299 300 301 301 302 302 302 302 302 302 302 302 303 302 301 301 301 300 301 302 302 301 300 298 297 296 296 296 296 296 296 296 295 294 293 293 294 294 294 293 292 291 290 290 290 290 291 292 291 291 291 290 290 290 290 290 290 290 290 290 290 290 290 290 290 291 291
295 295 295 295 294 294 293 293 293 294 296 297 297 298 298 298 298 298 299 299 300 301 301 302 301 301 301 302 302 303 303 302 301 300 300 300 302 302 301 299 298 297 296 296 295 295 296 296 296 295 294 293 293 294 294 294 293 292 291 290 289 289 290 290 291 292 291 291 291 291 290 290 290 290 290 290 290 290 290 290 290 290 291 291 291
294 295 295 295 294 294 294 293 293 293 295 296 297 298 298 298 298 298 298 298 299 300 300 300 300 301 302 303 303 303 302 301 300 300 300 302 302 301 299 298 297 296 296 295 296 296 296 296 295 294 293 293 293 294 294 293 292 292 290 289 289 289 290 290 291 291 291 291 291 290 290 290 290 290 290 289 290 290 290 290 290 291 291 291 291
295 295 295 295 295 294 294 293 293 293 294 296 297 298 298 298 298 298 297 297 298 299 299 300 300 301 302 303 303 303 302 301 301 301 301 301 299 298 297 297 296 295 295 296 296 296 295 295 294 293 293 293 294 294 293 292 292 291 290 289 289 289 289 290 291 291 291 291 290 290 290 290 290 290 289 289 290 290 290 290 290 291 291 291 292
296 296 295 295 295 295 294 293 293 293 293 295 296 298 298 298 298 298 298 298 298 298 298 298 300 301 302 303 303 302 301 302 302 301 299 297 296 295 295 295 295 295 296 296 296 295 294 294 293 292 293 294 293 293 292 292 291 290 290 289 289 289 289 290 290 291 291 291 290 289 289 290 290 289 289 289 290 290 291 291 291 291 291 291 292
297 297 297 295 294 295 294 293 293 293 293 294 295 297 298 298 298 298 298 298 298 298 298 298 299 300 300 301 301 301 301 301 301 300 297 296 295 295 294 294 295 296 295 295 295 294 293 292 292 293 293 293 293 292 292 291 291 290 290 289 288 289 289 290 290 291 291 290 290 289 289 289 289 289 289 290 290 290 290 291 291 291 291 291 292
297 298 298 296 294 295 295 294 294 294 293 293 294 296 297 298 298 298 299 298 298 298 299 299 299 300 300 300 300 300 300 301 301 299 298 297 295 294 294 295 295 295 295 295 294 293 292 292 292 293 293 293 292 292 292 291 290 290 289 289 289 289 289 290 290 290 290 290 290 290 289 289 289 290 290 290 290 290 290 290 291 291 291 291 292
297 298 297 296 294 294 295 295 295 294 294 293 294 295 296 297 297 298 299 299 299 299 299 299 299 300 300 300 300 299 300 301 300 298 297 296 295 294 295 295 295 295 294 293 292 291 291 292 293 293 293 293 292 292 291 290 290 289 289 289 289 289 289 290 290 290 290 290 290 290 289 289 289 289 290 290 290 290 290 290 290 291 291 291 292
297 297 296 295 295 294 295 295 296 295 295 294 294 294 295 297 297 297 298 298 298 299 299 298 299 299 300 300 300 300 300 299 297 296 295 295 295 295 294 294 294 294 293 291 291 291 292 293 293 293 293 292 292 291 290 289 289 289 289 289 289 289 289 290 290 290 290 290 290 290 290 289 289 289 290 290 290 290 290 290 290 290 291 291 292
296 296 295 295 295 295 295 295 296 296 295 295 294 294 295 296 297 297 296 297 298 299 298 298 298 299 298 298 299 299 298 296 295 295 295 295 295 294 294 294 294 292 291 290 291 292 292 292 292 292 292 292 292 291 289 289 288 288 289 289 288 288 289 289 289 290 290 290 290 290 290 289 289 289 289 289 289 290 290 290 289 290 290 291 291
296 296 296 295 295 295 295 295 295 295 295 294 293 293 294 295 296 296 296 296 297 298 299 298 297 296 296 297 298 297 296 295 295 295 295 294 294 294 294 293 293 291 290 289 290 292 292 292 292 292 292 292 291 290 289 288 288 288 288 288 288 288 289 289 289 289 289 289 290 290 290 289 289 289 289 289 290 289 290 289 289 289 290 290 291
296 296 296 296 296 296 295 295 295 294 294 293 293 293 294 295 295 296 296 296 297 298 298 298 297 295 295 296 296 295 294 295 295 294 294 294 294 294 293 293 292 291 289 289 290 291 292 292 292 291 291 291 290 289 288 288 288 288 288 288 287 287 288 289 289 289 289 289 289 290 290 289 289 289 289 289 289 289 289 289 289 289 289 290 290
296 297 297 297 296 296 296 296 295 294 294 293 294 294 295 296 296 297 297 297 297 298 297 297 296 295 294 294 295 294 295 295 294 294 293 294 294 294 293 293 292 291 289 288 289 291 292 292 291 291 291 290 289 289 288 288 288 287 288 287 287 287 288 289 289 289 289 289 289 289 290 289 289 289 289 289 289 289 289 289 289 289 289 290 290
296 297 297 297 297 297 297 297 296 295 295 295 295 295 296 297 297 298 297 296 296 296 296 296 295 294 293 294 295 295 294 294 294 293 294 294 294 293 293 293 292 291 290 288 289 291 291 291 291 291 291 290 289 288 288 288 287 288 288 287 287 286 287 288 289 289 289 289 289 289 289 289 289 289 289 289 289 289 289 289 289 289 289 290 291
296 296 296 296 296 296 297 297 297 296 296 295 296 296 297 297 297 297 296 295 295 295 295 294 293 293 294 295 295 294 294 294 294 294 294 294 293 293 293 292 292 291 290 288 289 290 291 291 291 290 290 289 288 288 288 288 288 288 288 288 287 286 286 287 288 289 289 289 289 289 289 289 289 289 289 289 289 289 289 289 289 289 289 290 291
296 296 296 296 295 295 295 295 296 296 296 296 296 296 296 296 296 296 296 295 294 294 294 294 294 295 295 295 294 294 294 294 294 294 294 293 293 293 292 292 292 291 289 288 289 290 291 290 290 290 289 288 288 288 287 288 288 288 288 288 288 287 286 287 288 289 289 288 289 289 289 289 289 289 289 289 289 289 290 290 289 289 290 290 291
297 297 296 296 296 295 295 295 295 295 295 295 295 295 295 295 295 295 295 294 294 294 294 295 295 295 295 295 294 294 294 294 294 293 293 293 292 292 292 292 292 291 289 288 288 289 290 289 289 289 288 288 287 287 287 288 288 288 288 289 289 288 286 286 287 288 288 288 288 289 289 289 289 289 289 289 289 289 290 290 290 290 290 290 291
296 296 297 296 296 296 296 295 295 295 295 295 295 295 295 295 294 294 294 294 295 295 295 295 295 295 295 295 294 294 293 293 293 293 293 292 292 291 291 292 292 291 289 288 288 288 288 288 288 288 287 287 287 287 288 288 288 289 289 289 289 289 287 286 286 288 288 288 288 289 289 289 289 289 289 289 289 289 290 290 290 290 291 291 291
Wind_Speed
23 26 27 25 25 25 20 14 16 20 21 19 16 18 14 8 7 7 5 6 5 6 7 7 7 7 7 7 7 7 7 8 8 9 9 8 8 8 8 8 7 7 7 6 6 6 6 6 5 5 5 5 5 5 5 5 5 5 5 6 7 7 8 8 8 9 10 11 12 12 13 12 12 12 11 11 10 10 10 9 8 7 6 7 7
15 18 19 20 20 21 18 12 12 19 21 18 19 23 16 9 9 9 7 8 7 7 8 7 8 8 7 8 7 7 7 7 8 8 8 7 7 7 7 7 6 6 5 5 4 4 4 5 4 3 3 3 3 3 2 2 3 2 2 3 4 5 6 7 7 8 9 10 11 12 13 13 13 13 13 12 12 12 11 11 10 10 9 9 9
8 11 13 16 17 18 18 13 11 16 20 18 22 24 16 10 11 11 10 10 9 9 9 8 9 9 9 9 8 7 6 6 6 6 6 6 6 6 5 5 5 5 4 4 4 3 3 3 3 3 3 2 2 2 2 1 1 1 1 1 2 3 4 5 6 6 7 8 8 10 11 12 13 13 13 13 13 13 12 11 11 11 10 10 10
4 7 9 13 16 18 19 15 12 14 17 20 24 25 19 14 13 13 13 13 12 11 10 9 10 10 9 9 8 7 6 4 4 4 4 5 4 4 3 2 2 3 2 2 2 2 2 2 2 2 2 2 1 0 1 1 1 1 2 2 2 2 2 3 5 6 6 6 7 8 9 10 12 13 13 13 13 13 12 12 11 11 11 11 11
4 5 7 11 15 18 19 16 13 13 15 21 27 27 23 18 15 15 16 16 15 14 12 12 11 11 11 10 9 8 6 5 5 5 5 5 5 4 3 2 1 1 1 2 2 1 1 2 2 2 2 2 2 2 2 2 2 2 2 2 2 2 3 3 4 5 6 7 7 7 8 9 10 11 12 13 14 14 14 14 13 13 13 13 14
5 5 6 8 11 15 18 17 14 13 14 20 27 28 25 21 18 18 18 19 19 18 17 15 14 13 13 12 11 9 7 8 8 6 5 6 7 6 5 4 4 3 4 5 6 6 5 5 5 5 5 5 4 5 5 5 4 4 4 3 3 3 4 4 4 4 4 6 7 8 9 9 9 10 11 12 13 14 15 16 17 16 17 17 18
4 5 6 8 10 14 18 17 15 14 15 19 23 26 26 24 21 20 19 20 21 22 22 21 19 17 16 15 14 12 11 11 10 8 6 7 8 7 7 8 7 7 7 8 9 9 9 9 9 10 9 9 8 8 8 8 8 7 7 6 5 5 5 5 5 4 3 4 6 8 9 9 10 11 12 12 13 14 15 16 17 18 19 19 20
2 4 6 8 10 13 17 18 16 15 16 18 20 22 24 24 23 21 19 18 20 23 25 25 24 22 21 20 19 17 15 14 13 11 9 8 7 7 9 10 11 11 10 10 11 11 12 12 12 12 13 13 12 12 12 12 12 11 11 10 9 8 7 7 7 7 6 6 7 8 10 11 12 13 14 14 15 15 16 16 17 18 18 20 22
2 1 4 6 8 11 15 18 18 17 18 20 21 22 23 23 24 24 23 21 21 24 25 26 26 26 25 24 23 21 19 16 13 11 9 7 7 8 9 9 10 12 12 13 14 13 13 13 13 14 14 15 15 16 16 16 16 15 15 13 12 12 11 10 10 10 10 9 8 9 10 12 14 16 17 17 18 18 19 19 19 20 20 20 22
4 3 1 2 4 8 12 16 17 19 20 23 25 26 26 25 26 27 27 24 22 22 22 23 25 26 25 25 26 25 24 20 16 14 11 9 9 10 10 10 11 13 14 14 14 13 13 14 14 14 15 16 17 18 18 19 18 19 18 16 14 14 14 12 12 12 12 11 11 10 10 12 15 18 19 19 20 20 21 21 22 23 23 23 24
3 2 1 1 2 3 7 10 13 16 20 23 26 28 29 29 28 28 26 23 22 21 20 22 24 23 20 23 29 30 27 23 20 19 15 11 12 12 12 12 13 13 13 14 13 13 14 14 14 14 15 16 16 18 19 20 20 20 19 18 16 16 16 15 14 13 13 14 14 13 11 13 16 18 20 21 22 22 23 24 24 26 27 28 28
4 2 2 3 4 4 5 7 9 11 14 17 20 23 26 29 29 29 28 27 27 26 24 23 23 20 17 19 25 28 25 19 18 18 13 11 12 12 12 12 13 13 14 14 14 14 14 15 16 16 16 16 16 17 19 20 21 20 19 19 18 18 18 17 16 15 15 16 16 15 13 14 16 19 21 23 24 24 25 25 26 27 29 30 31
6 5 5 6 7 7 7 8 9 10 11 14 17 20 23 24 24 25 26 27 26 25 25 24 21 19 16 15 18 22 22 20 19 15 13 12 12 12 12 12 13 13 12 12 11 11 12 13 14 15 16 16 17 17 18 20 21 20 19 20 20 20 19 18 16 16 17 17 16 15 15 14 16 19 22 25 26 26 26 26 28 29 30 32 33
6 6 6 8 9 10 10 10 10 11 12 14 16 18 20 20 20 20 21 22 22 22 23 21 18 17 16 13 14 18 21 22 19 16 13 12 11 11 10 10 9 8 7 6 6 6 7 8 9 11 13 14 15 17 17 19 19 18 18 20 21 20 19 17 17 17 18 18 17 17 16 15 17 20 23 26 27 26 27 27 29 30 31 33 35
6 6 6 8 9 11 11 11 10 11 12 14 15 18 19 20 20 19 19 20 20 21 20 19 17 18 19 18 17 18 20 19 17 14 13 12 10 8 7 7 6 5 3 3 3 3 3 4 5 7 9 11 12 14 14 15 15 13 15 19 21 20 18 17 18 19 19 19 18 18 18 18 19 21 24 26 27 27 28 29 30 31 33 34 35
6 6 6 6 8 9 9 10 10 11 12 12 14 17 19 20 20 21 22 22 21 20 20 19 17 18 20 20 19 19 19 17 15 14 14 12 10 7 6 6 5 4 3 2 3 3 3 4 4 4 6 7 8 9 9 9 9 10 13 17 19 18 18 18 19 20 20 19 19 19 19 20 21 23 25 27 27 27 29 30 30 31 32 32 33
6 7 7 6 6 6 7 8 8 10 12 13 14 16 18 19 21 22 23 22 21 21 21 20 18 17 17 18 18 19 18 17 17 16 14 13 10 7 5 4 4 3 4 4 5 5 6 6 6 6 5 5 5 4 4 5 6 9 13 16 17 17 18 19 19 20 19 19 19 20 20 21 22 25 27 28 28 29 30 30 30 30 31 30 29
6 7 8 7 6 5 5 5 5 6 9 11 15 17 19 20 22 21 21 22 22 21 20 19 18 18 17 18 19 19 19 18 17 16 14 11 8 6 4 4 4 5 6 6 7 8 8 9 8 8 7 6 5 3 2 4 7 11 13 15 17 18 18 19 19 19 19 19 20 21 21 23 25 27 29 29 30 31 31 30 30 30 31 29 28
8 8 8 8 8 7 7 6 4 4 5 6 10 14 17 20 20 18 19 21 20 18 17 17 17 17 17 18 19 19 19 18 16 15 12 9 7 5 4 4 5 6 8 8 9 9 10 9 9 8 8 7 5 3 3 5 9 11 14 15 17 17 17 18 18 19 20 20 21 22 23 25 27 29 30 30 31 31 31 30 30 31 31 30 29
11 11 11 10 10 10 10 9 7 6 5 5 6 8 10 12 14 14 16 18 19 18 17 18 18 17 17 17 19 19 18 16 15 13 10 8 6 5 4 5 6 7 8 8 9 9 9 9 8 7 7 6 6 5 5 7 8 11 12 14 15 16 17 18 19 20 20 21 22 24 26 28 29 29 30 31 31 31 31 31 30 30 30 30 29
15 16 15 14 12 11 11 11 11 10 9 8 7 8 8 9 10 11 13 16 18 19 20 20 20 20 19 19 18 17 16 15 13 11 9 7 6 5 5 5 6 6 7 8 8 9 8 8 7 7 7 7 7 8 8 9 10 11 12 14 16 17 18 19 21 21 22 24 25 27 28 29 29 29 30 30 30 31 30 30 29 29 29 30 30
19 19 20 19 18 16 14 12 12 12 11 11 11 10 10 10 11 12 14 16 17 19 21 22 22 22 21 20 19 17 16 13 11 9 7 6 5 5 5 5 5 6 7 7 8 8 7 7 7 7 8 8 9 9 10 11 12 13 14 15 17 18 19 20 22 23 24 25 26 27 27 28 28 29 29 29 29 29 28 28 28 28 28 29 28
23 23 23 24 23 22 19 17 14 13 11 12 14 15 13 13 14 15 16 17 19 20 20 20 21 21 21 20 19 17 14 12 9 7 6 6 6 6 6 6 6 7 7 7 7 7 7 7 8 8 9 9 10 10 11 12 13 14 15 16 17 18 19 20 21 22 23 24 25 26 26 26 27 27 27 27 28 28 28 28 28 28 28 28 27
27 27 27 27 26 26 25 22 20 17 14 12 14 17 18 18 19 19 18 18 19 20 20 20 21 22 22 21 20 17 14 11 9 7 6 6 7 7 7 8 8 8 8 8 7 7 7 8 9 9 10 10 10 11 12 13 14 15 16 17 17 17 18 19 20 21 22 23 24 24 24 25 25 26 27 27 27 27 28 28 28 28 27 27 26
29 29 29 29 29 28 28 27 25 23 20 18 16 17 18 19 22 23 22 20 20 21 23 24 25 24 23 21 19 16 13 11 9 8 7 7 8 9 9 10 10 9 9 8 8 8 8 9 10 10 11 11 11 11 12 12 13 14 14 14 15 16 17 18 19 20 21 21 22 23 23 24 25 26 27 27 27 27 26 26 26 26 26 25 25
31 31 31 31 31 31 30 30 28 26 25 24 23 21 19 19 20 22 24 24 24 24 25 27 27 26 24 21 19 16 13 11 9 9 8 9 10 11 12 12 11 11 10 9 9 9 10 10 11 10 10 10 10 10 10 11 11 12 13 14 15 16 17 17 18 19 19 21 22 23 24 25 26 26 26 26 26 25 25 24 24 24 24 23 23
32 31 31 31 32 33 33 32 31 29 27 26 27 26 24 22 21 21 23 25 27 28 28 29 29 27 24 21 18 15 13 12 11 12 12 13 14 15 14 13 12 11 11 10 10 10 10 10 10 10 9 9 9 8 9 10 11 12 14 15 15 16 16 16 16 18 19 20 22 23 24 24 25 25 25 25 25 23 23 23 23 23 22 21 21
33 33 32 32 32 34 35 34 33 31 29 28 28 29 29 28 26 24 23 24 27 29 29 29 29 28 25 22 18 15 15 15 15 17 18 17 16 15 14 13 12 11 11 11 11 11 10 9 9 8 8 7 7 8 9 10 11 13 14 15 15 15 15 15 16 18 20 21 22 23 23 22 22 24 24 24 23 22 22 21 21 21 20 19 20
33 34 33 33 33 34 35 36 35 33 31 30 28 28 30 31 29 27 27 26 26 26 27 27 26 25 23 21 19 19 19 19 19 20 18 16 15 14 13 12 12 12 13 12 11 10 8 7 7 7 6 6 7 8 9 11 13 14 14 13 12 13 13 15 17 19 21 22 23 23 23 21 22 23 22 21 21 21 21 21 21 20 19 18 18
30 32 32 32 33 34 35 36 36 35 33 32 30 28 28 30 30 31 32 29 27 28 27 25 24 23 21 20 20 20 18 17 19 19 18 15 14 13 12 13 14 14 13 12 10 8 6 6 6 6 6 6 7 9 10 11 12 12 11 10 10 12 14 16 18 20 21 22 22 22 22 22 22 22 21 21 21 21 21 21 19 18 17 16 17
25 27 28 29 31 32 34 35 37 36 33 32 30 28 26 27 28 30 31 29 28 29 29 26 25 23 20 19 19 17 14 14 16 18 16 14 13 13 14 14 14 13 11 10 8 7 6 6 6 6 6 7 8 9 10 11 10 9 8 8 10 13 15 17 19 20 21 21 21 21 20 21 22 21 21 21 22 22 21 19 17 16 17 17 19
24 25 26 26 27 28 31 33 35 35 33 31 29 26 24 23 23 25 27 27 26 26 26 26 25 23 21 20 18 16 17 18 19 18 15 14 13 14 14 14 13 11 10 8 7 6 6 5 5 6 6 7 9 9 10 9 7 6 6 8 11 13 15 17 19 20 20 21 21 21 20 21 21 21 21 21 21 21 20 18 17 17 18 19 20
25 25 26 26 26 27 29 31 33 34 32 30 28 27 25 23 20 18 20 23 24 24 24 25 26 26 26 24 22 20 20 20 19 17 15 15 14 14 14 13 12 10 9 7 7 6 5 5 5 6 7 8 8 8 8 6 5 5 7 9 11 14 15 17 19 20 20 21 21 20 20 21 21 21 21 20 19 19 18 18 18 19 19 19 20
25 25 25 25 25 26 26 27 30 33 32 30 29 28 27 25 22 17 14 14 18 23 26 27 27 27 25 24 23 23 22 20 19 18 17 15 15 15 15 13 12 10 9 8 7 6 5 5 5 6 7 7 7 6 5 3 3 5 7 10 11 14 16 18 19 20 20 20 19 18 18 19 20 20 19 18 18 18 17 17 18 19 20 20 21
26 26 25 24 23 24 25 26 29 32 32 30 29 28 28 26 25 22 17 12 13 18 23 27 28 27 25 25 26 26 24 22 19 17 15 15 15 16 15 14 12 11 10 9 7 6 5 5 5 6 6 6 5 4 2 2 3 6 8 9 11 14 16 18 19 20 20 20 19 19 19 19 19 18 17 16 17 17 17 18 19 20 20 20 21
25 25 25 24 23 23 23 24 27 31 33 32 29 28 27 26 25 25 23 19 15 16 17 20 25 28 27 28 29 27 23 19 16 14 14 15 16 15 14 12 11 10 9 8 7 6 5 5 5 5 5 4 3 2 1 1 4 6 8 9 12 14 16 18 20 20 20 20 19 19 20 19 19 18 16 15 15 16 17 19 19 20 19 20 21
23 24 25 24 23 22 20 20 23 27 32 33 30 27 26 26 25 25 24 23 22 20 14 12 20 29 31 31 29 25 20 16 14 14 14 15 14 13 11 9 9 9 9 7 6 6 5 5 5 5 4 3 2 2 1 2 4 6 7 9 11 14 16 18 19 20 20 19 18 19 21 21 20 19 17 15 15 17 17 18 19 19 19 19 20
20 20 22 22 22 21 19 18 18 22 28 33 32 29 26 25 24 24 24 23 24 25 18 13 19 27 30 29 27 23 20 18 17 17 17 17 16 14 12 10 9 9 8 7 7 6 5 5 5 5 4 3 3 2 1 3 5 6 8 9 11 14 16 18 19 20 20 19 19 20 22 22 21 20 18 17 17 18 18 18 18 18 19 19 20
19 18 17 18 19 19 18 16 15 17 23 29 31 29 28 26 23 23 24 24 23 23 21 18 19 22 22 21 21 21 20 21 21 21 21 19 17 15 14 12 11 9 8 7 6 5 5 6 5 4 4 4 3 2 2 4 5 7 8 10 11 14 16 18 19 20 20 19 20 21 22 22 22 22 21 20 19 18 17 17 17 17 19 19 19
17 16 14 13 14 16 15 13 12 12 17 23 27 28 28 27 24 22 23 23 23 23 23 22 23 24 22 19 16 18 21 22 23 22 21 20 18 16 14 12 10 9 7 6 6 6 6 6 5 4 4 4 3 1 3 4 6 7 9 10 11 13 15 17 19 19 19 20 21 22 22 23 23 23 22 22 21 18 16 15 16 18 19 19 20
13 12 9 6 9 12 13 13 13 11 11 16 22 26 27 27 26 23 21 21 21 22 23 23 24 25 24 19 15 16 20 22 22 22 21 19 17 16 13 11 10 8 7 6 6 6 5 5 4 4 4 3 1 1 3 5 6 8 9 10 11 12 14 16 18 19 19 20 22 23 24 24 24 24 24 24 23 21 17 15 16 18 19 19 19
10 7 3 2 5 7 9 11 13 12 10 10 16 22 25 27 27 25 22 20 18 18 19 21 23 25 24 21 17 16 18 20 21 21 19 17 16 15 13 11 10 8 6 6 5 5 5 4 4 4 3 2 0 2 4 5 7 9 10 10 10 11 13 15 17 18 20 21 22 24 25 25 25 25 25 25 25 23 18 15 16 18 18 18 19
13 10 9 8 7 6 6 7 9 11 11 10 13 19 25 27 27 24 21 19 17 15 17 22 26 28 27 24 19 17 17 18 19 19 18 18 17 15 13 11 9 7 6 5 5 6 5 4 3 3 3 2 0 2 4 6 8 9 10 10 10 10 12 14 16 18 20 22 23 24 25 26 26 26 26 25 25 24 20 16 16 17 18 18 19
18 16 15 14 12 9 6 4 4 7 9 9 10 16 22 25 24 22 19 17 15 14 15 19 25 28 28 25 21 19 19 20 20 19 19 18 17 13 11 9 7 5 5 5 5 5 5 4 3 3 3 2 1 2 4 7 9 10 10 10 9 10 11 13 15 17 20 22 24 25 26 27 27 26 26 26 26 25 22 19 17 17 18 18 19
20 20 19 17 15 12 10 8 6 6 7 8 10 14 18 19 18 17 16 14 14 15 15 17 21 26 28 26 23 22 21 20 20 20 19 17 14 11 9 7 6 4 4 4 4 4 4 4 4 4 4 2 1 3 5 7 9 10 11 11 10 10 11 13 15 17 19 21 23 25 26 27 27 26 26 27 27 25 22 20 19 18 18 18 18
16 16 16 15 14 13 11 11 11 10 9 11 13 15 15 15 13 12 12 12 14 15 15 17 22 26 27 26 24 22 21 21 21 20 18 15 12 9 7 6 5 4 3 3 4 4 3 3 4 5 4 2 1 3 5 7 9 10 11 11 12 11 11 12 14 16 18 20 23 24 26 26 26 26 26 27 26 25 23 20 19 19 19 18 18
19 16 14 14 13 13 12 12 13 14 13 14 15 15 14 13 12 10 9 9 12 14 16 21 26 27 26 25 24 22 21 21 20 18 15 12 9 7 5 4 4 4 3 4 4 4 3 4 5 5 5 3 1 2 5 7 9 10 11 12 12 12 11 12 14 15 17 19 22 23 25 25 26 26 26 26 26 25 24 22 21 20 19 19 18
29 25 22 19 16 15 14 14 15 15 15 15 15 14 13 12 11 11 11 12 14 18 22 26 27 26 24 23 22 20 19 18 17 15 12 10 7 5 4 4 5 4 4 4 4 3 4 5 6 5 4 3 2 2 5 7 8 9 10 12 13 13 12 12 13 14 16 18 21 23 24 24 24 25 25 25 25 25 25 24 22 21 20 18 17
29 29 29 27 25 22 20 19 18 17 16 16 16 16 16 16 16 17 18 20 22 25 26 26 25 22 21 20 19 17 15 14 13 12 10 8 6 5 5 5 5 4 3 3 4 4 4 5 5 5 3 3 2 2 5 6 7 8 10 12 14 14 13 12 12 13 15 17 19 22 22 23 23 24 24 24 24 24 24 24 23 21 20 18 16
25 26 27 27 27 26 25 24 23 22 20 20 20 20 20 21 21 21 22 23 24 24 24 22 20 19 18 17 15 13 13 12 11 10 8 6 5 5 6 6 5 3 3 3 4 4 4 4 4 4 3 2 2 3 4 6 6 7 9 11 14 15 14 12 11 12 14 15 18 20 21 21 22 22 23 24 23 23 23 23 23 21 20 18 16
21 23 24 24 24 23 23 23 23 23 22 22 22 21 21 21 21 21 21 21 21 21 20 19 17 15 14 13 13 12 12 11 9 8 6 5 5 6 6 7 5 3 3 3 4 4 4 4 4 3 2 2 2 3 4 5 5 7 9 11 13 15 15 12 11 11 13 14 16 18 19 20 21 21 22 23 23 22 22 22 22 21 20 18 16
Wind_Direction
228 229 233 239 242 241 240 236 224 209 201 208 205 194 201 202 183 195 210 205 196 176 168 164 163 163 158 154 145 136 130 123 121 115 109 104 97 97 98 99 101 98 97 99 102 109 111 108 109 111 112 107 100 94 90 89 84 77 77 75 73 70 66 62 57 49 37 29 27 26 26 28 30 29 29 28 25 23 21 15 9 4 354 345 334
230 234 239 244 250 243 232 239 241 217 207 206 195 195 204 205 194 203 208 209 207 191 183 174 169 168 165 163 159 152 146 136 130 124 115 107 94 88 85 85 91 91 90 90 86 89 92 88 84 83 92 105 108 107 102 93 80 66 54 54 57 57 57 55 49 43 31 21 18 17 18 19 19 18 19 20 19 18 16 10 6 4 0 357 349
225 233 239 241 245 238 229 238 238 214 209 207 201 203 209 203 199 206 211 215 216 208 203 192 181 178 174 172 169 165 158 145 137 130 122 115 103 94 84 76 78 79 79 83 83 81 77 75 73 66 62 72 98 132 140 114 84 52 13 16 28 35 40 36 31 31 27 20 15 11 10 7 7 7 7 7 8 9 9 4 0 356 351 351 348
195 218 232 236 236 235 235 239 231 216 213 209 208 213 216 213 211 212 215 218 218 215 213 207 199 192 186 184 180 176 171 159 154 151 145 139 131 124 111 87 70 61 55 50 60 70 60 52 49 45 41 39 41 127 176 168 334 333 334 335 344 359 5 5 5 11 16 14 10 4 359 354 353 353 353 353 354 355 356 355 352 348 343 342 340
166 192 210 225 233 235 237 241 243 238 225 212 212 218 222 222 224 223 222 221 219 218 215 212 210 204 200 197 190 185 180 174 173 171 172 174 171 171 177 181 214 306 307 300 302 302 314 320 316 318 329 339 338 322 299 280 283 300 309 308 304 303 313 325 341 1 11 11 7 3 357 351 344 341 341 343 342 341 340 338 335 334 335 334 331
168 185 195 210 225 232 234 241 249 249 233 216 216 220 223 229 233 231 228 225 223 222 221 218 216 212 212 211 204 199 191 185 188 193 202 207 202 200 211 219 232 257 275 279 275 274 277 278 281 284 283 287 294 298 300 295 284 280 276 276 274 275 286 297 311 339 0 6 6 3 358 352 345 339 336 334 333 331 330 329 328 327 328 329 328
191 202 206 210 219 227 233 241 249 248 235 224 221 223 226 232 236 237 237 234 232 232 231 229 226 220 218 218 212 206 198 195 196 202 216 220 215 221 235 241 247 255 266 276 273 265 262 262 266 270 270 270 273 277 282 285 286 283 275 269 267 267 271 276 281 295 321 347 356 353 349 346 343 340 334 329 325 321 319 321 322 322 323 325 325
210 225 226 225 224 227 234 241 247 247 241 235 231 229 232 237 240 245 248 244 240 239 237 237 238 233 227 226 222 213 204 202 203 206 216 225 230 249 261 260 261 260 261 274 278 266 256 255 259 262 263 263 264 266 269 273 278 279 277 274 272 271 272 271 273 280 294 313 329 337 339 339 338 335 331 327 324 320 317 316 316 316 317 320 320
89 245 244 243 238 234 238 242 245 245 244 242 238 236 241 246 249 255 258 252 245 243 240 239 239 234 226 224 226 223 215 211 213 218 232 255 273 284 288 282 277 273 269 275 279 271 262 262 263 261 260 258 258 258 261 264 268 271 273 275 275 273 273 274 275 280 286 295 308 323 333 334 333 332 330 327 326 323 321 320 319 317 314 315 316
75 64 36 280 253 239 241 244 244 244 244 246 246 244 245 246 250 258 261 252 242 242 244 246 246 240 232 230 236 235 228 227 229 225 234 270 299 306 305 297 289 285 280 278 277 271 267 267 265 261 258 256 254 254 255 258 261 265 269 272 272 269 269 271 275 280 284 286 291 306 321 326 326 327 327 326 325 324 323 321 320 320 318 317 317
68 86 99 265 255 247 245 244 246 248 248 251 251 249 247 243 244 251 253 243 238 243 249 258 264 261 253 250 248 244 241 243 235 221 227 268 301 305 300 291 285 281 278 277 276 273 270 267 263 261 258 257 256 254 254 254 256 258 262 264 263 261 260 263 268 274 278 280 284 294 307 316 320 322 324 324 323 321 320 319 319 321 322 321 321
9 339 288 266 253 247 242 240 244 246 248 252 254 253 250 244 239 241 243 240 241 244 247 254 261 263 262 257 245 236 235 235 220 215 238 279 295 292 285 279 279 280 280 280 278 275 271 267 264 262 259 258 257 256 255 253 252 252 252 252 252 253 254 256 261 271 278 281 286 293 301 310 317 320 322 323 321 317 315 316 317 318 320 320 320
358 333 309 289 273 259 248 245 244 243 244 250 253 253 249 241 235 238 241 237 233 235 241 246 249 252 254 246 231 223 220 214 212 230 262 276 275 273 271 273 279 281 278 276 272 269 267 264 263 262 260 259 257 257 256 253 251 248 244 241 243 247 250 253 261 273 279 281 286 292 297 307 314 318 321 321 317 313 311 312 313 314 315 316 316
0 340 317 297 284 272 261 254 249 248 247 247 250 249 243 237 237 236 233 229 227 233 239 239 241 242 231 210 202 207 209 212 225 248 258 250 253 260 263 271 276 272 268 266 263 265 265 263 263 262 262 261 259 258 257 254 251 245 237 236 240 244 247 254 266 276 280 283 289 292 295 302 307 312 317 316 311 308 307 308 309 309 310 311 312
351 343 327 309 298 289 279 270 261 256 251 246 244 240 235 236 239 235 228 229 235 239 237 233 234 230 211 195 193 203 212 223 234 239 230 226 234 241 245 252 252 249 258 269 276 285 283 277 271 264 261 260 258 259 257 250 244 239 236 236 238 241 247 259 271 278 283 288 292 292 295 300 303 308 312 310 305 303 303 304 306 306 307 309 310
319 315 314 316 314 310 301 290 279 267 258 247 236 231 233 239 242 238 235 238 238 236 234 230 225 213 202 199 203 210 219 222 216 209 208 214 219 221 226 234 239 253 271 283 299 311 314 308 298 281 269 260 252 250 245 236 230 230 233 233 235 244 255 267 275 280 285 289 288 290 295 298 300 304 307 305 303 303 305 307 308 308 308 309 310
300 291 290 296 306 315 313 305 292 277 265 250 236 232 237 244 247 244 242 244 241 232 225 217 209 204 202 204 208 212 212 203 194 195 202 209 211 211 222 238 254 275 286 300 312 315 317 319 317 311 303 290 273 255 233 219 219 224 229 234 243 255 265 272 276 280 282 284 285 290 295 297 300 304 306 304 304 306 307 307 306 306 306 307 307
290 277 274 274 277 281 287 295 299 288 272 255 243 239 239 243 248 246 243 246 244 233 219 207 203 205 205 203 204 204 197 188 186 192 199 203 205 207 226 253 275 287 294 304 310 313 316 318 317 317 315 312 311 304 260 230 228 231 238 247 256 264 270 274 278 280 282 285 288 293 297 301 304 305 304 304 304 304 304 303 302 303 304 304 303
278 266 260 256 254 255 256 261 272 278 275 261 246 239 236 236 239 236 232 231 228 220 215 211 208 207 203 194 189 188 184 182 185 191 196 199 202 211 233 259 279 292 302 309 314 318 321 321 320 318 315 313 311 299 268 251 246 248 254 259 263 269 275 280 282 284 287 291 295 299 302 303 304 303 302 302 303 302 301 301 302 303 303 302 302
271 259 253 247 245 248 249 249 250 249 247 251 243 229 220 221 221 216 212 211 207 206 212 212 206 202 195 184 177 177 181 183 186 190 195 201 208 220 239 264 285 300 311 318 324 327 327 326 323 316 308 303 295 284 272 264 261 262 263 266 272 278 282 286 289 292 293 295 298 300 301 301 301 301 301 301 301 301 302 303 303 303 302 301 301
264 253 248 245 243 242 241 242 245 241 233 237 243 232 216 214 215 207 201 201 202 203 204 201 197 193 188 183 181 181 182 184 187 192 199 206 217 232 249 270 290 307 319 325 329 331 330 327 318 305 297 291 284 279 276 271 269 269 270 274 278 281 285 288 291 293 295 296 298 299 299 299 300 300 300 301 302 303 304 304 303 303 301 300 298
263 255 251 250 249 246 240 238 237 234 231 234 239 236 225 223 222 215 207 201 197 196 193 190 190 190 189 189 187 184 182 184 188 196 205 217 235 249 260 273 286 300 309 314 321 326 327 321 308 298 294 291 287 283 280 278 275 274 276 279 282 284 286 287 288 291 294 296 298 299 299 300 301 301 302 303 304 305 305 305 304 302 301 298 296
266 260 254 252 252 250 247 244 238 233 232 231 229 227 227 228 224 218 216 212 207 205 201 194 191 191 190 189 186 182 183 186 192 205 221 235 246 251 255 263 272 283 293 301 310 317 316 308 301 296 293 292 289 284 281 280 278 277 279 283 286 287 288 289 291 294 295 297 298 300 301 303 304 305 306 306 306 307 306 304 303 301 300 298 297
271 265 259 255 252 250 250 249 245 240 234 226 222 222 223 226 223 219 218 217 213 209 205 201 198 194 189 187 186 185 188 194 202 214 226 233 236 240 247 256 266 276 285 295 302 306 305 302 300 298 296 293 288 283 279 278 278 279 283 287 290 293 294 295 297 298 299 301 303 305 307 308 308 309 308 307 307 307 306 304 303 304 303 302 300
270 267 263 259 255 252 251 250 248 244 237 231 228 225 222 222 220 217 215 214 209 204 201 199 197 194 192 192 193 194 199 206 213 218 221 224 229 238 250 261 268 274 282 291 298 301 302 302 301 299 297 293 288 284 282 283 286 289 293 296 299 300 300 301 303 305 306 308 310 312 312 311 310 310 309 308 309 309 308 307 307 307 307 306 304
270 267 265 261 258 256 254 251 250 248 242 236 233 231 231 228 222 217 214 213 209 205 202 200 198 198 199 200 200 202 208 215 221 224 226 231 240 250 258 263 266 272 279 288 295 297 298 298 297 295 292 287 286 287 289 294 299 301 302 303 303 304 306 309 312 313 315 316 317 316 314 312 311 311 311 311 312 311 310 309 309 310 310 309 307
270 269 267 264 260 257 255 253 252 251 249 244 238 234 233 233 231 225 217 213 211 208 206 206 205 204 203 202 202 208 219 226 231 237 241 246 250 253 254 255 259 267 277 285 289 291 292 291 288 285 283 283 286 291 296 301 303 305 306 308 310 313 316 318 320 320 321 321 320 318 315 314 315 316 315 314 314 314 314 313 313 315 317 315 312
270 267 265 263 261 257 255 254 252 251 251 249 244 238 233 232 233 231 224 220 216 211 208 207 206 204 203 203 206 216 227 234 240 245 248 248 246 243 243 248 257 267 276 283 285 283 281 279 277 277 279 284 290 295 300 305 308 311 315 317 319 322 324 325 326 326 325 325 323 321 319 318 319 320 319 319 318 319 319 319 318 319 320 317 313
273 268 264 260 257 256 254 252 251 250 249 248 248 245 240 238 237 235 233 230 222 214 212 212 211 211 212 215 222 229 234 241 246 245 239 233 231 234 241 251 262 270 275 277 275 270 266 264 267 273 278 284 293 301 308 313 316 317 320 322 324 328 330 332 332 331 329 328 326 323 322 321 322 322 322 320 320 320 320 320 320 320 318 314 310
274 271 266 261 256 253 251 250 249 249 246 245 246 246 245 245 243 241 240 238 232 228 228 230 234 236 231 225 226 230 233 237 237 229 222 220 226 236 246 254 260 264 264 261 255 249 251 256 261 268 277 287 299 307 312 316 317 318 320 325 330 334 336 336 336 334 332 330 327 324 324 324 324 324 321 319 319 320 320 321 320 317 313 309 307
275 272 267 262 257 251 248 246 246 247 245 244 244 244 246 248 247 244 244 243 238 236 239 243 248 245 230 216 216 222 228 228 221 216 216 222 230 238 245 249 252 250 247 244 241 240 246 253 260 272 285 294 303 309 313 317 318 318 324 333 338 339 340 340 338 335 332 330 327 325 325 325 324 323 322 320 321 322 322 320 316 311 309 309 309
281 278 272 265 258 251 246 243 242 243 243 242 241 240 241 244 246 247 246 243 238 235 235 234 232 225 215 212 217 226 233 230 220 215 218 224 231 237 239 239 238 236 234 235 238 243 247 253 266 283 293 299 306 311 315 318 319 321 332 341 342 343 342 340 337 336 334 332 330 327 326 325 324 323 322 322 322 322 322 319 315 313 313 314 314
280 282 279 273 265 255 247 242 239 239 239 239 237 235 235 237 241 245 244 240 234 230 225 222 219 217 217 217 214 214 222 225 218 215 221 227 230 229 226 224 224 223 225 230 234 237 246 257 272 287 296 302 308 313 316 316 318 331 342 345 344 342 341 340 339 339 338 336 335 332 328 325 323 321 321 322 322 320 317 315 315 315 316 316 316
275 275 277 276 272 263 252 242 236 233 234 234 233 232 233 235 237 238 239 234 226 223 223 222 217 212 211 210 203 199 207 215 215 217 222 224 221 219 216 213 212 210 212 217 218 223 239 258 275 289 298 303 309 313 313 310 326 346 347 344 343 342 342 342 341 341 342 342 339 333 326 323 320 319 320 322 321 318 314 314 316 317 318 318 317
274 271 270 270 270 267 259 248 237 230 228 228 228 229 230 232 232 232 232 227 217 217 220 219 212 206 205 207 203 196 196 202 206 211 216 216 214 211 208 205 205 207 206 205 206 219 240 258 278 291 296 300 302 300 293 305 349 354 348 342 342 343 344 344 343 343 344 343 339 334 330 325 322 321 321 320 321 320 318 318 318 318 319 320 319
276 271 267 264 264 264 262 253 242 232 226 223 222 223 225 227 228 229 230 229 226 222 218 216 216 214 207 201 195 189 188 196 203 207 212 213 209 205 203 202 204 203 201 201 209 226 242 258 276 283 283 283 280 260 231 1 1 354 344 340 343 346 347 346 345 344 344 342 339 339 337 333 330 329 325 320 320 321 320 321 321 320 321 321 319
283 274 267 261 258 258 259 255 245 235 228 223 219 217 218 221 224 226 228 229 229 228 223 219 219 211 195 183 182 181 181 188 197 200 201 199 195 193 197 201 200 198 199 206 217 228 240 254 264 264 260 251 225 193 134 17 359 347 341 342 345 347 348 347 345 343 342 343 343 343 342 341 341 340 333 324 323 323 323 323 324 324 322 321 320
299 285 273 263 255 251 251 250 244 235 228 224 219 215 214 216 219 222 224 224 225 228 233 236 223 206 186 174 173 176 178 185 190 188 185 183 182 184 187 188 192 197 204 212 220 227 237 243 244 241 230 203 177 159 59 9 351 341 340 344 348 349 349 347 345 344 345 347 347 346 345 346 349 349 343 335 330 327 326 327 328 327 324 323 322
307 298 283 266 252 244 242 242 240 233 227 222 218 214 212 211 212 217 220 218 218 221 224 228 227 216 196 179 174 177 185 193 191 184 181 180 181 183 186 188 194 202 207 213 219 225 229 232 231 222 199 176 161 134 30 3 349 342 343 347 350 351 350 347 345 346 349 350 349 348 348 350 353 354 351 344 337 330 326 327 330 329 327 326 323
308 299 288 267 247 237 232 227 225 226 225 221 216 212 210 209 208 212 215 213 212 212 210 211 215 211 199 190 191 195 195 195 191 187 184 182 181 181 185 191 197 203 208 216 224 228 227 225 218 198 179 169 158 88 18 2 351 346 347 350 351 350 349 346 345 348 352 353 353 352 352 352 354 356 355 350 342 334 329 331 334 334 332 329 324
321 305 293 261 231 227 224 216 212 213 219 220 216 212 209 207 205 208 211 211 212 213 211 212 216 208 193 186 199 210 204 198 193 186 180 179 180 180 183 190 197 204 212 221 224 222 216 208 197 182 173 168 150 30 9 360 353 351 351 350 348 347 348 347 347 350 354 356 355 354 353 353 354 356 356 354 349 343 338 338 339 338 335 332 328
355 352 7 121 168 200 208 206 206 205 204 211 213 210 208 205 203 206 211 213 214 215 212 210 212 208 194 184 190 202 201 195 186 176 171 174 179 180 183 189 195 200 205 206 203 196 188 183 181 176 170 167 130 10 4 358 355 355 352 346 342 345 348 348 348 350 354 356 356 355 354 354 355 356 357 356 353 348 344 344 344 343 340 336 332
34 46 69 97 118 146 170 186 199 199 197 203 209 207 204 202 201 205 212 215 215 217 213 206 201 196 187 180 179 184 185 181 174 169 169 174 176 178 181 186 188 189 187 182 179 177 175 176 177 171 167 175 293 1 1 357 358 357 349 341 339 345 349 348 349 351 354 355 356 356 356 355 356 357 357 356 353 350 349 350 348 345 341 338 334
52 62 73 84 90 97 111 132 169 185 190 202 208 201 196 196 198 204 212 217 215 214 214 209 200 188 178 171 169 170 171 170 169 169 171 171 170 172 175 176 173 170 169 172 176 178 178 181 178 167 168 191 286 354 357 358 360 355 344 338 341 347 348 349 350 352 353 355 355 356 356 357 357 357 357 356 354 353 353 353 350 345 343 341 338
61 67 71 76 80 85 92 98 110 138 164 174 175 176 179 185 191 198 206 213 216 215 214 211 200 185 172 163 160 162 165 168 168 168 166 164 163 163 162 159 156 156 162 172 179 179 180 180 169 162 175 202 295 348 352 356 358 351 342 340 344 346 347 349 350 351 352 354 354 356 357 357 357 358 358 357 355 354 354 354 352 348 346 345 343
68 72 71 70 74 82 93 102 109 115 128 140 146 149 154 161 172 185 196 203 208 209 206 199 189 178 166 158 156 160 164 165 163 162 161 160 158 152 147 148 154 157 162 176 183 179 172 162 159 167 182 203 286 332 343 351 353 348 345 346 345 344 345 349 350 351 352 353 354 356 357 357 358 359 359 357 355 355 356 355 353 350 349 349 346
61 69 73 74 76 77 83 96 107 111 114 123 132 136 139 146 158 169 177 183 187 186 179 173 169 165 159 155 155 158 160 160 160 161 162 160 152 143 143 158 167 165 168 180 181 170 151 147 160 176 188 201 253 311 338 348 348 348 351 352 349 345 345 347 349 350 352 353 354 356 357 357 358 360 358 356 355 356 357 357 355 353 352 352 348
57 61 67 74 80 82 84 91 101 108 110 116 122 126 127 131 138 140 138 145 156 160 158 156 157 157 157 154 152 152 154 158 161 162 161 155 149 151 165 176 174 171 174 176 167 148 139 152 169 182 193 209 246 313 342 346 345 350 358 360 357 353 348 345 347 350 352 353 355 356 357 358 359 359 358 357 356 356 358 359 357 355 354 353 350
56 58 61 65 71 76 81 86 93 100 107 114 119 121 122 123 124 124 125 131 140 147 149 151 153 154 153 150 147 146 150 155 158 159 156 152 156 171 182 180 174 168 162 156 149 142 148 163 177 190 205 224 261 325 342 342 344 354 1 3 3 360 352 344 345 348 351 354 357 358 358 359 359 359 359 359 358 357 358 359 358 356 356 355 352
59 61 62 63 65 69 75 81 86 90 97 104 109 113 116 119 120 121 126 132 139 144 147 147 145 143 143 144 145 147 150 153 155 155 152 154 166 180 185 182 172 153 131 135 144 151 160 172 188 206 223 242 284 331 340 341 347 357 1 3 4 3 356 349 345 346 349 354 358 359 359 360 0 0 360 0 360 359 359 359 359 359 359 358 356
62 66 68 68 69 69 72 77 83 87 92 98 103 109 115 118 121 126 131 136 140 143 144 141 138 137 141 145 147 148 149 152 154 154 156 164 178 188 188 181 166 137 119 130 142 151 164 182 204 225 239 258 296 330 342 342 347 356 360 1 3 3 1 357 350 346 349 354 358 360 1 2 1 0 1 1 2 1 0 0 1 3 4 3 0